Location: Lourdes
(43.1000°N, 0.0500°W)
Time: 06:30:35
(UTC+00:00)

COSMO-SKYMED 1 - Pass Details

Date: 30 November 2020
Orbit: 621 x 623 km, 97.9° (Epoch: 27 January)

Event Time Altitude Azimuth Distance (km) Brightness Sun altitude
Exits shadow 17:03:41 - 39° (NE) 2,397 5.0 -6.9°
Reaches altitude 10° 17:05:01 10° 50° (NE) 2,002 4.6 -7.1°
Maximum altitude 17:07:56 17° 92° (E) 1,568 4.1 -7.6°
Drops below altitude 10° 17:10:49 10° 134° (SE) 1,990 4.9 -8.1°
Sets 17:13:39 0° 154° (SSE) 2,890 6.0 -8.6°
